{"data":{"norad_id":65992,"epoch":"2026-09-20T21:27:35.820576Z","epoch_age_seconds":106253,"freshness":"FRESH","line1":"1 65992U 25230U   26263.89416459  .00000103  00000+0  91156-4 0  9997","line2":"2 65992  81.3009 124.8388 0001106  53.4004 306.7251 13.78100267 46944","mean_motion":13.78100267,"eccentricity":0.0001106,"inclination_deg":81.3009,"raan_deg":124.8388,"arg_perigee_deg":53.4004,"mean_anomaly_deg":306.7251,"bstar":9.1156e-5,"rev_number":4694,"period_min":104.49167121452,"perigee_km":969.8198019066,"apogee_km":971.44534973677,"semimajor_km":7348.7695758217,"source":"CELESTRAK","updated_at":"2026-09-21T09:00:15.691175Z"}}